CW7664 Weather Reports


Display with metric or nautical units.
time (UTC)temp
F
wind
direction
speed
MPH
gust
MPH
rain 1hr
in
rain 24hr
in
rain mn
in
humidity
%
barometer
mb
20260503204516 66 205 3.0 8.0 0.00 0.00 0.00 59 1012.4
20260503203022 67 77 2.0 7.0 0.00 0.00 0.00 59 1012.6
20260503201514 66 315 2.0 5.0 0.00 0.00 0.00 62 1012.6
20260503200012 65 286 1.0 7.0 0.00 0.00 0.00 64 1012.7
20260503194513 65 13 2.0 9.0 0.00 0.00 0.00 64 1012.9
20260503193011 65 316 2.0 8.0 0.00 0.00 0.00 63 1012.9
20260503191509 65 160 3.0 7.0 0.00 0.00 0.00 64 1012.8
20260503190008 65 211 2.0 7.0 0.00 0.00 0.00 65 1012.9
20260503184515 66 179 2.0 4.0 0.00 0.00 0.00 62 1013.0
20260503183007 66 267 1.0 3.0 0.00 0.00 0.00 63 1012.9
20260503181506 66 99 0.0 2.0 0.00 0.00 0.00 64 1013.0
20260503180007 65 68 0.0 2.0 0.00 0.00 0.00 65 1013.1
20260503174605 65 26 0.0 2.0 0.00 0.00 0.00 66 1013.1
20260503173119 64 107 1.0 4.0 0.00 0.00 0.00 66 1013.1
20260503171556 63 306 0.0 2.0 0.00 0.00 0.00 67 1013.1
20260503081503 61 300 1.0 3.0 0.00 0.00 0.00 78 1011.9
20260503071611 61 268 0.0 4.0 0.00 0.00 0.00 79 1011.6
20260503070107 60 229 0.0 5.0 0.00 0.00 0.00 79 1011.4
20260503054552 61 219 1.0 4.0 0.00 0.00 0.00 80 1011.4
20260503053052 61 187 1.0 5.0 0.00 0.00 0.00 80 1011.3
20260503051554 61 227 3.0 7.0 0.00 0.00 0.00 80 1011.3
20260503050052 61 230 1.0 5.0 0.00 0.00 0.00 80 1011.1
20260503044550 61 265 2.0 6.0 0.00 0.00 0.00 79 1010.9
20260503043050 61 291 0.0 4.0 0.00 0.00 0.00 79 1010.6
20260503041604 61 253 2.0 6.0 0.00 0.00 0.00 79 1010.4
20260503040057 61 262 1.0 4.0 0.00 0.00 0.00 79 1010.2
20260503034604 61 311 1.0 5.0 0.00 0.00 0.00 78 1010.1
20260503033053 62 250 1.0 4.0 0.00 0.00 0.00 78 1009.9
20260503031548 62 242 0.0 6.0 0.00 0.00 0.00 77 1009.6
20260503030053 62 221 2.0 7.0 0.00 0.00 0.00 77 1009.4
20260503024551 63 170 2.0 7.0 0.00 0.00 0.00 76 1009.3
20260503023047 64 212 2.0 9.0 0.00 0.00 0.00 74 1009.0
20260503021547 65 336 2.0 7.0 0.00 0.00 0.00 72 1008.9
20260503020047 66 304 2.0 5.0 0.00 0.00 0.00 71 1008.9
20260503014549 68 244 0.0 5.0 0.00 0.00 0.00 69 1008.8
20260503013045 68 284 1.0 6.0 0.00 0.00 0.00 69 1008.9
20260503011544 68 310 2.0 8.0 0.00 0.00 0.00 68 1008.9
20260503010046 69 202 2.0 9.0 0.00 0.00 0.00 67 1008.8
20260503004543 70 323 3.0 7.0 0.00 0.00 0.00 66 1008.8
20260503003042 71 261 2.0 7.0 0.00 0.00 0.00 65 1008.9
20260503001542 71 215 3.0 8.0 0.00 0.00 0.00 64 1008.9
20260503000040 71 217 4.0 9.0 0.00 0.00 0.00 64 1009.1
20260502234540 72 225 3.0 7.0 0.00 0.00 0.00 62 1009.1
20260502233042 73 246 2.0 5.0 0.00 0.00 0.00 62 1009.2
20260502231537 72 334 2.0 7.0 0.00 0.00 0.00 63 1009.4
20260502230034 72 221 3.0 7.0 0.00 0.00 0.00 63 1009.6
20260502224532 72 321 3.0 9.0 0.00 0.00 0.00 63 1010.0
20260502223033 72 319 3.0 8.0 0.00 0.00 0.00 63 1010.4
20260502221528 73 223 4.0 9.0 0.00 0.00 0.00 62 1010.6
20260502220029 72 344 3.0 10.0 0.00 0.00 0.00 63 1010.9
20260502214530 73 201 4.0 10.0 0.00 0.00 0.00 61 1011.1
20260502213023 73 229 4.0 9.0 0.00 0.00 0.00 61 1011.3
20260502211529 73 313 3.0 10.0 0.00 0.00 0.00 61 1011.4
20260502210021 73 244 3.0 10.0 0.00 0.00 0.00 62 1011.4